CAPE
2109 1626 1755 1846 2075 2174 1351 1416 2135 1034 1274 1896 1548 1092 1230 1204 871 595 1382 2384 2307 2154 2310 1974 2154 1968 1895 1958 1870 1292 878 1064 1131 1032 455 756 1443 1257 804 259 298 799 806
2456 1997 2300 1276 2081 1602 1530 1778 1380 1824 1204 1769 2023 1832 1120 1061 1241 1176 1243 1759 2049 1980 2363 2354 2530 2477 2152 2052 1960 1879 1433 1272 1753 1713 1542 1336 1296 1521 1408 879 701 740 831
2473 2491 2455 2001 1553 1757 2510 1198 1602 2164 1561 1763 1788 1320 1430 1027 929 845 940 1308 1609 2159 1962 1871 2348 2439 2385 2143 2088 2156 2028 2017 1812 1876 1960 1737 1633 1459 1664 1283 974 935 276
2332 2461 1492 1131 1827 1550 2414 2353 1346 1958 2197 1650 1352 1677 1409 1303 1235 1179 1344 954 1421 1054 1557 2047 1893 1372 1615 1740 1982 2273 2088 1978 1927 1917 1917 1915 1667 1477 1282 1344 1408 978 94
2019 2274 1701 1872 1655 1900 2018 1853 2130 2158 1645 1275 1345 639 879 1696 1012 780 908 1105 996 1603 1048 1681 1433 695 748 1103 1784 2062 2180 2119 1885 1943 1962 1829 1686 1489 1029 956 415 455 132
1864 1486 1426 1339 1095 622 1416 883 1446 1556 1848 1731 1086 683 1390 531 1281 862 1130 671 1677 1638 1146 1204 101 151 624 184 595 1390 1711 2285 1492 1836 1918 1705 1391 1367 898 772 246 219 380
1062 1130 819 1411 1063 555 272 1074 1451 679 1457 1283 386 757 826 697 1158 840 663 1362 763 1063 297 1439 782 672 312 75 36 974 1469 1838 1729 1573 1626 1345 1099 971 1097 829 353 264 340
455 738 877 703 1501 1288 1246 971 987 988 1183 643 1049 863 730 848 767 815 1347 964 833 922 983 1217 1132 1034 1034 1054 1085 1080 1030 976 1004 1676 1384 951 846 743 683 725 458 324 293
816 460 486 1031 887 787 537 626 719 955 623 484 1112 656 429 191 821 1001 326 545 603 819 1355 964 1049 1206 1254 1170 1498 1300 1451 1168 1596 1632 1420 1041 605 318 308 355 199 90 77
996 599 543 690 800 669 356 156 70 110 282 375 803 640 724 537 179 37 72 10 342 673 667 760 721 749 660 761 470 171 95 94 663 954 904 1040 599 518 343 142 75 52 42
912 764 355 681 634 670 446 441 412 615 426 612 569 626 594 473 153 95 41 61 97 10 0 0 98 678 633 546 361 176 372 325 710 921 829 581 346 234 194 127 129 145 179
1184 853 481 393 224 158 30 224 347 244 392 717 703 110 51 165 138 103 152 293 188 3 4 4 2 211 221 105 100 104 149 238 204 290 407 480 386 268 194 185 156 191 205
1855 1093 640 477 345 328 494 198 507 542 505 597 277 162 102 57 111 482 353 449 189 5 5 2 1 19 39 98 35 12 6 0 1 1 6 19 62 118 89 107 155 237 223
1139 1254 1228 1634 1258 1100 921 849 685 531 571 639 958 947 791 1260 1107 735 585 432 148 5 6 2 1 2 0 1 6 3 1 0 0 0 0 0 0 0 27 92 163 203 157
1253 1445 1461 1287 1110 1599 819 847 662 422 257 277 303 240 496 698 831 492 397 461 103 2 4 4 2 4 2 9 13 3 1 1 0 0 0 0 0 0 0 0 0 0 0
1637 1435 906 1231 1296 1406 1090 876 826 677 574 430 402 412 494 663 1036 1289 1072 860 438 218 4 2 4 4 2 2 9 0 0 1 0 0 0 0 0 0 0 0 0 0 0
1758 1335 639 1210 1093 1231 1129 1175 937 818 549 716 733 506 547 760 779 1322 1127 807 559 242 17 4 3 5 3 0 6 0 0 0 0 0 2 0 0 0 0 0 0 0 0
1681 1674 1379 1009 978 1144 1090 468 398 587 454 427 276 501 571 662 701 594 525 587 517 235 3 4 1 1 0 8 14 0 8 0 0 1 0 0 0 0 0 0 0 0 0
1861 1493 1483 1247 1077 1100 648 617 434 495 492 506 263 241 585 593 604 716 702 838 504 39 1 3 2 2 1 0 0 1 3 0 0 2 0 0 0 0 0 0 0 0 0
2114 1101 1154 1044 818 899 726 734 330 157 426 429 162 258 472 669 762 894 949 667 331 92 2 3 1 1 0 0 0 0 0 0 0 0 0 0 0 0 0 0 0 0 0
1707 1591 1252 1112 1021 633 50 330 266 226 334 405 232 293 112 3 0 0 261 582 342 8 1 2 2 1 1 0 0 0 0 0 0 0 0 0 0 0 0 0 0 0 0
2262 2091 1711 1159 1211 1333 0 0 0 14 158 264 121 190 5 0 0 0 0 0 250 75 1 2 3 1 1 0 0 0 0 3 0 0 0 0 0 0 0 0 0 0 0
2655 2442 2111 1393 1190 1204 0 0 0 0 0 89 138 225 139 97 77 8 0 0 0 0 14 0 0 0 0 0 0 0 0 0 1 0 0 0 0 0 0 0 0 0 0
2725 2550 2209 1974 1701 29 0 0 0 0 0 19 69 254 160 141 38 209 149 126 61 11 0 5 17 0 0 0 0 0 0 0 0 0 0 0 0 0 0 0 0 0 0
2684 2268 2186 1966 1889 225 0 0 0 0 0 0 14 32 131 190 0 0 83 246 104 0 0 0 0 1 0 0 0 0 0 0 0 0 0 0 16 0 0 0 0 0 0
2414 1881 1951 1637 1032 805 0 0 0 0 0 3 4 60 9 0 0 0 14 124 196 183 0 0 0 0 0 0 0 0 0 0 0 6 0 0 31 0 2 0 0 0 0
CIN
-22 -27 -38 -20 -26 -22 -39 -32 -20 -43 -41 -13 -16 -24 -17 -26 -28 -49 -62 -39 -46 -65 -52 -35 -9 -3 -1 0 0 0 -2 0 0 0 -6 0 0 0 0 -13 -2 0 0
-20 -19 -15 -39 -33 -49 -56 -38 -38 -34 -40 -25 -23 -23 -38 -57 -48 -26 -73 -81 -55 -65 -59 -46 -25 -6 -2 -1 0 0 0 0 0 0 0 0 0 0 0 0 0 0 0
-10 -17 -17 -19 -54 -52 -18 -42 -36 -19 -28 -11 -20 -28 -28 -49 -36 -19 -38 -58 -62 -51 -52 -46 -26 -21 -13 -8 -3 0 0 0 0 0 0 0 0 0 0 0 0 0 -10
-5 -12 -23 -35 -54 -41 -19 -17 -33 -15 -14 -20 -40 -22 -34 -41 -29 -38 -32 -48 -63 -51 -47 -34 -35 -39 -25 -20 -11 -2 -1 -1 -1 -1 -1 0 -1 -1 -1 -1 0 -1 -46
-11 -5 -25 -18 -41 -29 -22 -17 -12 -12 -31 -49 -33 -57 -59 -33 -49 -20 -36 -42 -59 -68 -84 -61 -48 -55 -10 -4 -8 -8 -6 -6 -8 -3 -1 -1 -1 -2 -6 -4 -10 -5 -25
-2 -22 -16 -25 -62 -76 -18 -42 -24 -24 -13 -22 -16 -13 -35 -63 -34 -59 -51 -49 -45 -26 -39 -64 -168 -180 -56 -97 -24 -18 -18 -6 -19 -9 -7 -5 -6 -3 -8 -5 -21 -17 -1
-5 0 -13 -1 -13 -56 -98 -23 -8 -38 -11 -19 -94 -37 -46 -52 -11 -34 -40 -41 -71 -114 -114 -38 -90 -105 -110 -87 -39 -18 -16 -5 -6 -10 -11 -13 -15 -13 -6 -5 -11 -11 -4
-23 -5 -1 -9 -2 -4 -7 -26 -14 -18 -12 -46 -8 -14 -13 -23 -22 -39 -32 -35 -32 -37 -29 -23 -27 -31 -13 -10 -31 -40 -44 -35 -27 -6 -13 -19 -19 -18 -17 -8 -7 -9 -6
-11 -18 -6 -2 -1 -6 -14 -28 -25 -13 -19 -53 -12 -17 -8 -20 -15 -25 -35 -19 -30 -25 -8 -17 -9 -11 -14 -14 -5 -16 -18 -34 -20 -9 -11 -13 -22 -27 -23 -11 -12 -19 -21
-1 -16 -6 -1 0 -4 -24 -55 -78 -59 -34 -23 -18 -36 -16 -18 -13 -31 -37 -10 -24 -8 -6 -6 -21 -19 -18 -14 -34 -88 -110 -114 -38 -18 -16 -11 -16 -14 -17 -23 -12 -17 -18
0 0 -18 -6 -8 -3 -16 -15 -20 -17 -23 -13 -15 -15 -17 -10 -24 -2 -5 -10 -13 -78 -1 0 -22 -1 -5 -11 -9 -38 -21 -34 -18 -13 -13 -13 -15 -16 -18 -17 0 0 0
-1 -11 -16 -23 -48 -56 -96 -34 -26 -31 -12 -11 -13 -54 -67 -29 -37 -17 -5 -4 -13 0 0 0 0 -1 -2 -12 -6 -13 -6 -17 -21 -10 -2 -1 0 -3 -7 -2 -4 -1 0
-4 -12 -42 -42 -40 -35 -21 -36 -16 -20 -11 -7 -33 -51 -55 -76 -68 -16 -13 -7 -2 0 0 0 0 -19 -21 -3 -13 0 -3 0 -35 -27 -20 -68 -14 -6 -17 -1 -5 -8 0
-33 -8 -10 -3 -5 -6 -3 -5 -8 -9 -10 -4 -2 -3 -11 -6 -7 -13 -15 -13 -2 0 0 0 0 0 0 -4 0 0 0 0 0 0 0 0 -14 -5 -46 -9 -3 -9 -1
-35 -15 -19 -25 -13 -3 -13 -11 -20 -32 -45 -11 -34 -37 -25 -26 -23 -52 -34 -6 -29 0 0 0 0 -1 -2 -1 -1 0 0 0 0 0 0 0 0 0 0 0 0 0 0
-10 -1 -1 -3 -9 -2 -7 -11 -8 -11 -16 -43 -38 -24 -18 -21 -22 -8 -7 -10 -16 -14 -43 0 0 0 -1 -2 -2 0 0 0 0 0 0 0 0 0 0 0 0 0 0
-1 0 -3 -4 -3 -4 -11 -12 -10 -15 -18 -10 -10 -12 -10 -8 -20 -5 -9 -13 -14 -14 -54 0 0 0 0 0 -2 0 0 0 0 0 0 0 0 0 0 0 0 0 0
0 0 -2 -3 -3 -6 -11 -7 -6 -4 -12 -10 -10 -7 -13 -13 -6 -20 -21 -31 -11 -26 -166 0 0 0 0 -2 -2 0 -4 0 0 0 0 0 0 0 0 0 0 0 0
-1 -1 -1 -1 -7 -2 -8 -4 -2 -7 -3 -3 -23 -13 -6 -12 -10 -5 -7 -6 -11 -77 0 0 0 0 0 0 -2 -5 -7 0 0 0 0 0 0 0 0 0 0 0 0
-1 -13 -8 -7 -7 -8 -2 -2 -3 -3 -2 -4 -8 -12 -4 -9 -12 -6 -1 -6 -14 -21 0 0 0 0 0 0 -1 0 0 0 0 0 0 0 0 0 0 0 0 0 0
-7 -20 -19 -11 -6 -18 -8 -40 -3 -2 -4 -6 -15 -17 -59 -5 0 0 -26 -4 -6 -6 0 0 0 0 0 0 0 -1 0 0 0 0 0 0 0 0 0 0 0 0 0
-2 -3 -7 -23 -7 -4 0 0 0 -70 -47 -12 -8 -8 -45 0 0 0 0 0 -6 -27 0 -2 0 0 0 0 0 0 0 -1 -1 -1 -1 0 0 0 0 0 0 0 0
-4 -2 -4 -13 -14 -3 0 0 0 0 0 -58 -11 -8 -4 -24 -49 -17 0 0 0 0 -10 -2 0 0 0 0 0 -2 0 0 -33 0 -3 0 0 0 0 0 0 0 0
-3 -5 -4 -4 -6 -79 0 0 0 0 0 -71 -40 -8 -8 -11 -24 -18 -21 -16 -30 -10 0 -9 -14 0 0 0 0 0 0 0 0 0 0 0 0 0 0 0 0 0 0
-4 -6 -4 -7 -1 -99 0 0 0 0 0 0 -53 -15 -47 -35 -1 0 -41 -13 -17 -13 0 0 0 -6 0 0 -1 0 0 0 0 0 0 0 -14 0 0 0 0 0 0
-9 -1 -1 -1 -7 -28 0 0 0 0 0 -97 -44 -17 -64 0 0 0 -35 -22 -12 -11 0 0 0 0 0 0 0 0 0 0 -1 -3 0 0 -10 0 -16 0 0 0 0
Wind_Speed
4 5 5 5 4 4 5 5 4 4 4 3 4 9 7 4 4 3 4 15 15 15 16 16 14 14 14 13 12 12 12 12 10 11 11 10 10 9 9 8 8 8 7
5 5 5 4 4 4 4 4 5 4 5 3 4 4 5 4 5 5 6 7 16 15 17 17 17 16 16 15 14 13 13 12 11 11 11 10 9 8 8 9 8 7 6
5 6 4 6 6 5 5 3 4 4 4 5 6 4 4 6 6 6 2 5 7 14 13 14 15 17 17 17 17 16 14 13 12 12 13 12 11 10 9 10 10 6 1
5 4 4 5 2 5 4 4 5 4 3 3 4 3 4 4 6 5 4 4 6 5 10 14 14 11 13 14 15 16 16 15 14 13 12 13 13 12 9 8 8 7 3
4 3 5 3 5 3 2 3 2 3 4 4 5 4 3 4 5 4 5 6 6 5 5 9 6 2 12 18 18 16 16 15 15 14 13 13 13 13 12 10 8 10 10
5 4 4 3 2 3 2 3 5 5 4 3 4 3 3 3 4 3 3 1 4 3 5 4 4 5 9 9 27 20 18 16 15 13 13 14 13 13 13 13 12 12 10
9 8 5 3 4 4 5 3 3 6 4 1 4 5 4 6 6 3 5 2 7 4 11 4 4 4 6 22 34 26 15 12 14 13 13 12 13 13 14 15 14 13 13
8 8 8 7 6 4 3 3 4 4 2 3 3 1 2 4 2 4 3 2 3 5 7 5 5 4 6 2 8 13 10 13 13 13 12 12 10 9 12 12 14 14 12
5 9 8 6 4 3 3 4 3 5 5 3 4 3 2 4 2 2 5 5 4 2 3 3 2 2 3 2 1 5 8 10 14 11 12 10 7 6 4 5 5 6 5
3 4 6 8 6 4 5 4 4 5 5 6 3 5 4 2 0 3 4 7 4 5 6 4 5 5 5 2 5 3 1 2 3 6 7 9 8 8 8 8 7 8 8
3 5 3 4 5 4 4 5 6 8 6 6 6 2 4 1 1 2 2 4 1 4 4 5 5 4 4 4 4 6 5 3 8 11 12 11 11 9 9 7 7 7 8
4 5 5 3 3 3 3 3 4 1 4 5 4 3 3 3 4 3 6 4 2 3 3 4 4 4 4 5 10 11 10 10 11 10 11 11 11 11 10 7 7 8 11
3 6 6 5 4 4 3 3 4 3 4 3 3 3 4 5 3 4 5 2 2 1 1 3 3 3 4 5 7 11 13 14 13 13 13 13 12 10 7 7 7 10 13
4 6 6 5 5 6 5 4 3 3 2 4 5 5 4 4 4 5 5 4 2 2 1 2 2 2 3 4 8 12 8 13 13 12 11 12 12 12 14 14 13 13 14
6 9 9 8 6 6 5 5 3 2 3 4 5 5 5 4 3 3 2 4 4 3 2 2 1 1 3 3 5 7 6 10 11 10 10 10 11 11 12 13 14 16 16
4 2 2 3 6 5 4 4 3 4 4 4 4 5 5 4 5 3 4 4 4 3 4 2 2 2 2 3 9 7 8 10 11 10 10 11 10 11 12 13 13 14 15
3 1 2 1 2 4 5 5 6 6 6 6 4 5 5 5 4 3 3 4 5 4 5 2 2 2 2 3 5 7 7 8 5 9 9 10 11 12 12 12 12 13 13
3 4 3 4 2 3 4 3 3 4 5 4 3 3 5 3 2 4 4 5 5 5 4 7 3 1 2 3 4 6 4 8 7 8 9 10 10 10 11 11 11 10 11
6 5 4 3 4 4 2 2 1 5 3 3 3 2 4 5 3 2 3 3 4 6 6 6 4 2 1 2 1 2 4 6 7 10 8 8 9 9 9 9 10 8 8
7 5 4 3 0 2 2 3 2 1 4 4 2 2 4 4 5 4 3 2 7 6 7 7 4 3 2 1 3 4 4 5 6 6 8 8 9 9 9 9 9 9 8
6 6 6 3 3 2 4 4 2 3 4 5 2 3 6 6 6 7 4 3 6 6 6 5 3 3 3 3 5 4 4 5 5 4 5 5 4 4 5 8 8 10 9
4 3 4 6 3 2 5 5 3 3 8 4 3 2 6 9 7 6 6 11 3 7 6 4 5 5 6 5 5 6 5 5 5 6 7 6 7 7 7 6 12 12 11
6 5 5 3 4 5 9 4 4 3 4 5 3 3 3 5 7 7 4 6 7 6 7 7 8 7 7 9 8 6 4 5 3 4 4 4 8 7 8 9 20 17 15
5 5 5 4 5 5 10 6 2 2 3 6 6 5 2 3 4 5 6 6 6 4 4 3 4 5 6 9 10 6 5 2 1 3 4 4 7 6 8 6 22 21 19
5 4 3 3 4 7 9 7 4 1 1 3 5 3 6 6 4 5 3 6 5 4 5 7 6 3 9 13 9 7 5 4 3 4 7 3 3 4 5 6 9 20 20
6 5 5 4 6 6 10 10 6 2 1 3 5 3 3 4 1 6 5 6 5 5 6 5 2 1 4 11 13 9 7 7 6 4 7 8 4 4 3 4 6 8 7
Wind_Direction
197 207 193 189 185 183 196 189 195 208 246 234 200 206 234 298 201 167 138 177 193 183 181 190 203 212 219 217 219 220 224 226 218 216 223 227 230 225 220 229 238 244 246
202 203 196 186 184 192 175 198 196 184 218 232 267 233 247 300 301 285 165 200 192 196 194 194 200 208 217 217 219 224 225 231 229 223 224 229 234 235 221 233 243 250 266
196 264 215 215 170 181 154 149 197 144 238 217 223 228 204 236 246 237 254 180 196 208 214 207 209 212 213 211 212 215 224 227 227 225 222 225 226 226 223 228 239 242 132
175 258 262 260 108 152 170 177 206 169 264 292 264 237 203 231 243 254 223 232 181 192 215 217 217 224 230 239 224 213 213 221 222 224 222 223 228 224 218 224 231 224 212
202 214 277 336 47 333 223 201 205 183 213 241 234 238 240 244 240 259 263 232 220 177 195 205 182 53 332 277 248 231 220 220 220 221 224 226 226 225 214 212 215 243 234
193 212 275 291 42 305 284 214 231 220 230 216 286 242 215 281 260 261 236 352 343 143 173 204 205 189 200 261 279 231 224 220 223 216 223 228 227 226 213 214 215 237 242
204 197 206 241 204 237 265 316 230 253 254 206 28 276 249 200 238 268 262 193 163 60 314 214 214 190 228 195 241 247 226 220 222 217 220 223 226 232 215 215 219 225 237
205 209 199 204 214 215 228 252 244 241 254 228 227 188 281 297 310 307 335 7 277 165 237 275 275 214 240 274 196 195 212 246 244 223 220 225 231 236 226 220 227 231 241
199 196 205 192 181 217 232 234 234 208 234 272 213 188 201 227 345 357 360 318 40 25 350 338 338 348 323 347 227 240 229 231 234 226 219 219 216 200 186 202 165 157 169
138 196 185 187 196 187 204 220 231 240 252 248 254 223 235 131 139 337 28 331 322 58 15 16 12 9 357 22 63 18 284 253 178 181 182 151 145 146 139 145 163 172 179
183 150 157 195 193 195 215 241 261 237 224 225 216 196 206 151 82 226 234 227 178 50 15 360 356 3 7 56 79 61 67 115 111 110 120 132 138 141 142 152 157 168 157
169 176 177 177 187 199 229 266 278 330 303 248 232 167 175 171 186 185 231 228 200 64 28 12 360 4 46 84 82 78 81 85 93 104 113 123 127 129 134 148 160 157 149
187 184 175 178 189 210 231 251 268 239 205 234 193 198 203 215 202 229 228 228 140 146 91 28 359 18 48 76 86 87 86 84 88 91 91 92 94 93 119 142 145 154 138
188 172 187 181 203 187 212 229 210 221 238 247 240 222 221 223 227 227 232 197 131 124 115 117 343 45 43 65 106 93 75 79 80 84 89 90 91 87 85 89 96 110 120
173 178 192 182 192 198 201 190 216 204 170 265 266 260 244 255 244 229 246 222 161 157 151 173 130 348 120 119 125 99 86 85 87 83 87 91 90 90 88 89 90 92 97
60 0 8 59 160 172 189 210 232 213 228 238 244 234 242 246 213 222 211 215 195 175 147 127 144 151 101 94 112 104 103 94 89 89 94 102 103 99 96 96 98 102 104
164 214 223 309 134 175 184 197 211 200 222 228 253 272 261 254 260 229 228 224 192 177 135 104 91 118 119 137 120 122 160 118 97 96 96 106 108 107 106 105 105 107 108
171 236 179 194 201 249 234 232 266 306 210 202 256 251 271 318 247 258 246 230 168 162 137 147 122 116 99 184 150 158 175 134 120 127 107 103 104 111 112 115 112 112 116
179 202 197 156 212 262 357 196 177 332 333 268 232 37 305 281 314 317 297 239 145 113 124 154 126 115 127 157 133 107 109 112 110 135 137 108 116 113 116 114 116 115 112
182 193 202 158 3 263 283 305 131 252 294 282 162 344 298 38 20 352 2 88 136 134 122 138 117 124 137 141 166 147 124 123 130 168 160 153 145 140 137 133 136 133 127
203 141 126 128 150 11 38 295 150 239 230 262 166 193 80 81 67 53 354 148 136 117 122 132 142 135 141 162 182 162 169 166 163 164 151 159 151 160 165 164 163 158 151
159 156 169 177 176 130 86 47 17 7 359 297 269 202 139 133 119 96 70 62 105 140 152 145 173 181 178 178 175 185 194 177 175 199 165 183 177 185 173 186 173 169 166
187 178 198 174 186 160 135 91 39 20 4 336 318 290 339 120 161 130 104 91 82 67 168 167 175 186 177 187 178 191 172 169 182 174 161 189 190 199 175 185 169 169 173
182 178 196 194 200 116 131 134 54 12 355 350 332 331 29 178 75 94 170 167 154 153 138 163 177 173 183 180 192 179 171 165 187 176 148 201 212 217 168 168 168 172 175
164 157 180 177 217 141 153 148 161 182 341 317 301 17 41 40 74 63 347 138 145 148 110 108 94 189 189 179 173 145 167 152 199 221 185 231 211 161 159 171 183 181 178
144 187 166 181 172 144 174 154 165 171 157 349 346 298 99 107 45 30 348 345 178 169 158 161 159 139 157 180 175 184 180 198 208 216 212 204 221 158 195 168 178 181 191